APRIZESAT 5

Satellite information

Favourite Embed

Satellite Type and Status

PAYLOADIN ORBIT

Key statistics

Satellite APRIZESAT 5 at a glance.

Uptime

5011

Days in orbit

Revolutions

≈ 14.8

Per day

Orbit

SSO

Sun Synchronous Orbit

Inclination

98.2

Latest

Satellite identification and parameters

Extended collection of information and parameters for APRIZESAT 5.

Object identification

Identified? True

Debris? False

Object name: APRIZESAT 5

International designator: 2011-044E

Object number (NORAD): 37792

Object ID (CCSDS): 37792

Country: UNITED STATES OF AMERICA (US)

Current information (Y/N): Y

RCS size: MEDIUM

Orbital parameters

Period: 97.305 minutes

Inclination: 98.2324 deg

SMA: 7007.833 km

Apoapsis: 666.28 km

Periapsis: 593.117 km

RAAN: 43.0833 deg

Eccentricy: 0.0052201

Argument of periapsis: 233.4422 deg

Mean anomaly: 126.1978 deg

Mean motion: 14.79882076 rev/day

Mean motion (dot): 0.00001523 rev/day2

B* drag term: 0.00020505 1/REarth

Two-line elements (TLE)

Creation date: May 6, 2025, 3:54 a.m.

Reference frame: TEME

Reference center: EARTH

Epoch: May 5, 2025, 3:53 p.m. UTC

TLE line 0: 0 APRIZESAT 5

TLE line 1: 1 37792U 11044E 25125.66236124 .00001523 00000-0 20505-3 0 9999

TLE line 2: 2 37792 98.2324 43.0833 0052201 233.4422 126.1978 14.79882076738496

Live tracking on map

Real-time ground track for satellite APRIZESAT 5.

In-orbit conjunctions

There are no conjunctions computed for APRIZESAT 5, at the moment. Check back to stay up to date, as we update our databases every day.

Go to all conjunctions

Associated space launch

APRIZESAT 5 was lifted into orbit during the mission ‘Dnepr 1 | Sich-2’, on board a Dnepr space rocket.

The launch took place on Aug. 17, 2011, 7:12 a.m. from 370/13.

For more information about the launch, click the button.

Launch to space Dnepr 1 | Sich-2
Dnepr 1 | Sich-2

Agency: N/A

Status: Launch Successful

Launch date: Aug. 17, 2011, 7:12 a.m. UTC

Rocket: Dnepr

Launch pad: 370/13

Location: Dombarovskiy, Russian Federation

...

Latest news about this satellite

There are no fresh news available about this satellite. Check back as we update our databases every day.


Newsletter sign-up

Weekly statistics, charts and insights to help you stay on top of the space industry.